This is the latest recevied weather packets stored in our database for station/object AI5BL. If no packets are shown the sender has not sent any weather packets the latest 10 day(s).
| Time | Temp. | Humidity | Pressure | Rain* | Wind** | Luminosity | Snow |
|---|---|---|---|---|---|---|---|
| 1778166451 | 18.89° C | 93% | 1017.2 hPa | 0 mm | - | 245 W/m² | - |
| 1778166148 | 18.33° C | 94% | 1017.5 hPa | 0 mm | - | 214 W/m² | - |
| 1778165844 | 18.33° C | 95% | 1017.4 hPa | 0 mm | - | 283 W/m² | - |
| 1778165541 | 18.33° C | 96% | 1017.3 hPa | 0 mm | - | 183 W/m² | - |
| 1778165238 | 17.78° C | 96% | 1017.5 hPa | 0 mm | - | 188 W/m² | - |
| 1778164936 | 17.78° C | 97% | 1017.6 hPa | 0 mm | - | 131 W/m² | - |
| 1778164632 | 17.22° C | 97% | 1017.4 hPa | 0 mm | - | 170 W/m² | - |
| 1778164329 | 17.22° C | 98% | 1017.3 hPa | 0 mm | - | 183 W/m² | - |
| 1778164025 | 17.22° C | 99% | 1017.3 hPa | 0 mm | - | 156 W/m² | - |
| 1778163722 | 17.22° C | 99% | 1017.4 hPa | 0 mm | - | 152 W/m² | - |
| 1778163417 | 16.67° C | 99% | 1017.3 hPa | 0 mm | - | 180 W/m² | - |
| 1778163115 | 16.67° C | 99% | 1017.4 hPa | 0 mm | - | 114 W/m² | - |
| 1778162811 | 16.67° C | 99% | 1017.3 hPa | 0 mm | - | 78 W/m² | - |
| 1778162509 | 16.67° C | 99% | 1017.1 hPa | 0 mm | - | 90 W/m² | - |
| 1778162206 | 17.22° C | 99% | 1017.2 hPa | 0 mm | - | 90 W/m² | - |
| 1778161903 | 16.67° C | 99% | 1017 hPa | 0 mm | - | 84 W/m² | - |
| 1778161599 | 17.22° C | 99% | 1017 hPa | 0 mm | - | 77 W/m² | - |
| 1778161296 | 17.22° C | 99% | 1017.2 hPa | 0 mm | - | 44 W/m² | - |
| 1778160991 | 17.22° C | 99% | 1016.9 hPa | 0 mm | - | 42 W/m² | - |
| 1778160689 | 17.78° C | 99% | 1017.2 hPa | 0 mm | - | 49 W/m² | - |
| 1778160386 | 17.22° C | 99% | 1016.9 hPa | 0 mm | - | 62 W/m² | - |
| 1778160082 | 17.22° C | 99% | 1017.3 hPa | 0 mm | - | 49 W/m² | - |
| 1778159779 | 17.22° C | 99% | 1017.1 hPa | 0 mm | - | 33 W/m² | - |
| 1778159477 | 17.22° C | 99% | 1017 hPa | 0 mm | - | 58 W/m² | - |
| 1778159173 | 17.78° C | 99% | 1016.9 hPa | 0 mm | - | 26 W/m² | - |
* Rain latest hour (hover to see other rain measurements)
** Current wind speed in m/s (hover to see current wind gust speed)